Regional Weather Roundup
Issued by NWS

Home | Current Version | Previous Version | Graphics & Text | Print | Product List | Glossary On
Versions: 1 2 3 4 5 6 7 8 9 10 11 12 13 14 15 16 17 18 19 20 21 22 23 24 25 26 27 28 29 30 31 32 33 34 35 36 37 38 39 40 41 42 43 44 45 46 47 48 49 50
124
ASUS43 KFSD 232310
RWRSD

WEATHER ROUNDUP FOR SOUTH DAKOTA
NATIONAL WEATHER SERVICE SIOUX FALLS SD
600 PM CDT SUN JUL 23 2017

NOTE: "FAIR" INDICATES FEW OR NO CLOUDS BELOW 12,000 FEET WITH NO
SIGNIFICANT WEATHER AND/OR OBSTRUCTIONS TO VISIBILITY.


SDZ001>005-009-010-012>017-240000-
NORTHWEST AND NORTH CENTRAL SOUTH DAKOTA

CITY           SKY/WX    TMP DP  RH WIND       PRES   REMARKS
BUFFALO          N/A     91  46  21 S7        29.91F
FAITH            N/A     90  46  21 S6        29.98F
MOBRIDGE       SUNNY     83  56  39 E5        29.96F
$$

SDZ012>016-024>037-041>051-057-063-072>074-240000-
SOUTHWEST AND SOUTH CENTRAL SOUTH DAKOTA

CITY           SKY/WX    TMP DP  RH WIND       PRES   REMARKS
RAPID CTY ARPT SUNNY     92  45  19 SE12      29.99F
PIERRE         SUNNY     87  49  26 CALM      29.96F
CUSTER         SUNNY     82  43  25 SE9       30.16F
ELLSWORTH AFB  SUNNY     92  47  21 SE8       29.99F
PHILIP         SUNNY     93  48  21 E12       29.95F
PINE RIDGE     SUNNY     93  55  27 E9        29.99F
SPEARFISH      FAIR      91  46  21 E17G28    30.01F
WINNER         FAIR      93  50  23 NE9       29.99F
$$

SDZ004>011-016>023-039-040-240000-
NORTHEAST SOUTH DAKOTA

CITY           SKY/WX    TMP DP  RH WIND       PRES   REMARKS
ABERDEEN       SUNNY     79  60  52 NE7       30.00S
WATERTOWN      FAIR      75  59  57 NE6       30.00F
BROOKINGS      FAIR      75  60  59 N10       30.01S
SISSETON         N/A     77  60  55 N9        29.99F
$$

SDZ017-020-022-023-036>040-048>070-240000-
SOUTHEAST SOUTH DAKOTA

CITY           SKY/WX    TMP DP  RH WIND       PRES   REMARKS
SIOUX FALLS    FAIR      80  62  54 N9        29.99S
HURON          MOSUNNY   81  61  50 N9G17     29.99F
CHAMBERLAIN    SUNNY     89  55  31 NE5       29.98S
MITCHELL       SUNNY     82  58  43 N10       29.99F
YANKTON        FAIR      83  57  41 N12       29.99S
$$

ABBREVIATIONS USED IN REMARKS
   TC - TEMPERATURE IN CELSIUS
  WCI - WIND CHILL INDEX
   HX - HEAT INDEX
  VSB - VISIBILITY





USA.gov is the U.S. government's official web portal to all federal, state and local government web resources and services.